| time (UTC) | temp F | wind direction | speed knots | gust knots | rain 1hr in | rain 24hr in | rain mn in | humidity % | barometer mb |
| 20260505153045 | 55 | 0 | 0.0 | 0.9 | 0.00 | 0.00 | 0.00 | 91 | 1016.3 |
| 20260505151545 | 54 | 0 | 0.0 | 0.0 | 0.00 | 0.00 | 0.00 | 91 | 1016.3 |
| 20260505124540 | 53 | 127 | 0.0 | 1.7 | 0.00 | 0.00 | 0.00 | 92 | 1015.4 |
| 20260505123048 | 53 | 185 | 0.9 | 1.7 | 0.00 | 0.00 | 0.00 | 92 | 1015.4 |
| 20260505121543 | 53 | 158 | 0.0 | 1.7 | 0.00 | 0.00 | 0.00 | 92 | 1015.2 |
| 20260505120053 | 53 | 168 | 0.0 | 0.9 | 0.00 | 0.00 | 0.00 | 92 | 1015.3 |
| 20260505114543 | 53 | 0 | 0.0 | 0.9 | 0.00 | 0.00 | 0.00 | 92 | 1015.3 |
| 20260505113051 | 53 | 0 | 0.0 | 2.6 | 0.00 | 0.00 | 0.00 | 92 | 1015.2 |
| 20260505111538 | 53 | 162 | 0.9 | 4.3 | 0.00 | 0.00 | 0.00 | 92 | 1015.2 |
| 20260505101547 | 53 | 0 | 0.0 | 1.7 | 0.00 | 0.00 | 0.00 | 93 | 1015.1 |
| 20260505100045 | 53 | 214 | 2.6 | 3.5 | 0.00 | 0.00 | 0.00 | 92 | 1015.2 |
| 20260505094546 | 53 | 0 | 0.0 | 4.3 | 0.00 | 0.00 | 0.00 | 92 | 1015.2 |
| 20260505093043 | 53 | 198 | 1.7 | 3.5 | 0.00 | 0.00 | 0.00 | 92 | 1015.0 |
| 20260505091549 | 53 | 207 | 0.0 | 1.7 | 0.00 | 0.00 | 0.00 | 92 | 1014.9 |
| 20260505090104 | 53 | 209 | 0.0 | 2.6 | 0.00 | 0.00 | 0.00 | 91 | 1015.0 |
| 20260505084559 | 53 | 180 | 0.9 | 3.5 | 0.00 | 0.00 | 0.00 | 92 | 1014.9 |
| 20260505083059 | 53 | 147 | 0.9 | 2.6 | 0.00 | 0.00 | 0.00 | 91 | 1014.7 |
| 20260505081556 | 53 | 0 | 0.0 | 4.3 | 0.00 | 0.00 | 0.00 | 91 | 1014.7 |
| 20260505080052 | 53 | 161 | 1.7 | 4.3 | 0.00 | 0.00 | 0.00 | 91 | 1014.9 |
| 20260505074541 | 53 | 133 | 1.7 | 7.0 | 0.00 | 0.00 | 0.00 | 91 | 1014.9 |
| 20260505073049 | 53 | 0 | 1.7 | 3.5 | 0.00 | 0.00 | 0.00 | 91 | 1014.9 |
| 20260505071545 | 53 | 97 | 0.9 | 5.2 | 0.00 | 0.00 | 0.00 | 90 | 1015.0 |
| 20260505070050 | 54 | 131 | 0.0 | 6.1 | 0.00 | 0.00 | 0.00 | 90 | 1014.9 |
| 20260505064542 | 53 | 181 | 2.6 | 5.2 | 0.00 | 0.00 | 0.00 | 90 | 1015.0 |
| 20260505063049 | 54 | 167 | 1.7 | 5.2 | 0.00 | 0.00 | 0.00 | 90 | 1015.0 |
| 20260505061539 | 54 | 150 | 0.9 | 3.5 | 0.00 | 0.00 | 0.00 | 90 | 1015.0 |
| 20260505060056 | 54 | 285 | 1.7 | 5.2 | 0.00 | 0.00 | 0.00 | 89 | 1015.1 |
| 20260505054537 | 54 | 160 | 2.6 | 6.1 | 0.00 | 0.00 | 0.00 | 89 | 1014.9 |
| 20260505053044 | 54 | 172 | 2.6 | 6.1 | 0.00 | 0.00 | 0.00 | 88 | 1015.0 |
| 20260505051543 | 54 | 136 | 0.9 | 7.8 | 0.00 | 0.00 | 0.00 | 87 | 1015.2 |
| 20260505041552 | 55 | 162 | 2.6 | 7.0 | 0.00 | 0.00 | 0.00 | 86 | 1014.6 |
| 20260505040046 | 55 | 123 | 1.7 | 8.7 | 0.00 | 0.00 | 0.00 | 86 | 1014.6 |
| 20260505034546 | 55 | 155 | 3.5 | 7.0 | 0.00 | 0.00 | 0.00 | 85 | 1014.4 |
| 20260505033038 | 55 | 302 | 0.9 | 6.1 | 0.00 | 0.00 | 0.00 | 85 | 1014.3 |
| 20260505031536 | 55 | 124 | 3.5 | 9.6 | 0.00 | 0.00 | 0.00 | 85 | 1013.8 |
| 20260505030056 | 55 | 0 | 1.7 | 6.1 | 0.00 | 0.00 | 0.00 | 85 | 1014.0 |
| 20260505024545 | 55 | 146 | 4.3 | 9.6 | 0.00 | 0.00 | 0.00 | 85 | 1014.0 |
| 20260505023042 | 55 | 155 | 0.9 | 8.7 | 0.00 | 0.00 | 0.00 | 84 | 1014.0 |
| 20260505021538 | 56 | 175 | 2.6 | 9.6 | 0.00 | 0.00 | 0.00 | 83 | 1013.8 |
| 20260505020048 | 56 | 160 | 2.6 | 6.1 | 0.00 | 0.00 | 0.00 | 81 | 1013.8 |
| 20260505014603 | 57 | 117 | 2.6 | 8.7 | 0.00 | 0.00 | 0.00 | 80 | 1013.9 |
| 20260505013050 | 57 | 328 | 2.6 | 9.6 | 0.00 | 0.00 | 0.00 | 79 | 1013.8 |
| 20260505011544 | 58 | 117 | 3.5 | 10.4 | 0.00 | 0.00 | 0.00 | 78 | 1013.9 |
| 20260505010053 | 58 | 145 | 4.3 | 10.4 | 0.00 | 0.00 | 0.00 | 78 | 1014.2 |
| 20260505004548 | 58 | 182 | 3.5 | 10.4 | 0.00 | 0.00 | 0.00 | 78 | 1014.2 |
| 20260505003053 | 59 | 122 | 5.2 | 13.9 | 0.00 | 0.00 | 0.00 | 76 | 1014.3 |
| 20260505001541 | 60 | 58 | 3.5 | 13.9 | 0.00 | 0.00 | 0.00 | 76 | 1014.3 |
| 20260505000043 | 61 | 184 | 5.2 | 11.3 | 0.00 | 0.00 | 0.00 | 72 | 1014.2 |
| 20260504234545 | 63 | 141 | 3.5 | 10.4 | 0.00 | 0.00 | 0.00 | 73 | 1014.1 |
| 20260504233039 | 62 | 325 | 3.5 | 10.4 | 0.00 | 0.00 | 0.00 | 72 | 1014.1 |
| 20260504231539 | 62 | 137 | 1.7 | 9.6 | 0.00 | 0.00 | 0.00 | 74 | 1014.3 |
| 20260504230046 | 62 | 177 | 0.9 | 8.7 | 0.00 | 0.00 | 0.00 | 75 | 1014.3 |
| 20260504224543 | 61 | 186 | 3.5 | 12.2 | 0.00 | 0.00 | 0.00 | 77 | 1014.4 |
| 20260504223058 | 62 | 140 | 3.5 | 10.4 | 0.00 | 0.00 | 0.00 | 75 | 1014.5 |
| 20260504221540 | 62 | 181 | 5.2 | 9.6 | 0.00 | 0.00 | 0.00 | 74 | 1014.6 |
| 20260504220040 | 62 | 198 | 3.5 | 11.3 | 0.00 | 0.00 | 0.00 | 74 | 1014.7 |
| 20260504214538 | 61 | 79 | 4.3 | 11.3 | 0.00 | 0.00 | 0.00 | 76 | 1014.7 |
| 20260504213044 | 62 | 129 | 4.3 | 10.4 | 0.00 | 0.00 | 0.00 | 74 | 1014.7 |
| 20260504211615 | 61 | 141 | 4.3 | 9.6 | 0.00 | 0.00 | 0.00 | 74 | 1014.9 |
| 20260504210046 | 60 | 186 | 5.2 | 9.6 | 0.00 | 0.00 | 0.00 | 77 | 1015.0 |
| 20260504204539 | 61 | 244 | 1.7 | 8.7 | 0.00 | 0.00 | 0.00 | 77 | 1015.1 |
| 20260504203049 | 61 | 117 | 4.3 | 13.0 | 0.00 | 0.00 | 0.00 | 76 | 1015.1 |
| 20260504201538 | 60 | 160 | 4.3 | 10.4 | 0.00 | 0.00 | 0.00 | 78 | 1014.9 |
| 20260504200043 | 60 | 145 | 5.2 | 9.6 | 0.00 | 0.00 | 0.00 | 77 | 1014.9 |
| 20260504194549 | 60 | 131 | 1.7 | 9.6 | 0.00 | 0.00 | 0.00 | 78 | 1014.9 |
| 20260504193041 | 60 | 146 | 5.2 | 10.4 | 0.00 | 0.00 | 0.00 | 77 | 1014.8 |
| 20260504191546 | 59 | 182 | 4.3 | 8.7 | 0.00 | 0.00 | 0.00 | 78 | 1014.8 |
| 20260504184550 | 57 | 198 | 4.3 | 9.6 | 0.00 | 0.00 | 0.00 | 82 | 1014.8 |
| 20260504183042 | 57 | 141 | 6.1 | 10.4 | 0.00 | 0.00 | 0.00 | 81 | 1014.8 |
| 20260504181538 | 57 | 198 | 3.5 | 9.6 | 0.00 | 0.00 | 0.00 | 82 | 1014.9 |
| 20260504180039 | 57 | 174 | 5.2 | 8.7 | 0.00 | 0.00 | 0.00 | 82 | 1014.8 |
| 20260504174543 | 58 | 158 | 4.3 | 7.0 | 0.00 | 0.00 | 0.00 | 81 | 1014.6 |
| 20260504173050 | 58 | 112 | 1.7 | 6.1 | 0.00 | 0.00 | 0.00 | 82 | 1014.6 |
| 20260504171544 | 59 | 171 | 1.7 | 5.2 | 0.00 | 0.00 | 0.00 | 80 | 1014.6 |